Tracking 19562 objects as of 21-Mar-2019
HD Live streaming from Space Station
objects crossing your sky now

COSMOS 521

Track COSMOS 521 now!
10-day predictions
COSMOS 521 is classified as:


NORAD ID: 6206
Int'l Code: 1972-074A
Perigee: 982.1 km
Apogee: 1,013.8 km
Inclination: 65.8 °
Period: 104.9 minutes
Semi major axis: 7368 km
RCS: 1.4458 m2 (large)
Launch date: September 29, 1972
Source: Commonwealth of Independent States (former USSR) (CIS)
Launch site: PLESETSK MISSILE AND SPACE COMPLEX (PKMTR)
aabbcc
Your satellite tracking list
Your tracking list is empty




NASA's NSSDC Master Catalog

Two Line Element Set (TLE):
1  6206U 72074A   19079.67190521 -.00000056  00000-0  26434-4 0  9996
2  6206  65.8281 311.9722 0021496 275.4878 117.6730 13.72443676328779
Source of the keplerian elements: AFSPC